[[[{"header":{"parameterUnit":"kt","parameterCategory":2,"dx":1,"dy":1,"la1":30.253999710083008,"la2":30.299108505249023,"lo1":-89.0895004272461,"lo2":-89.04439544677734,"nx":28,"ny":28,"refTime":"2022-09-17T21:00:00:Z","depth":0,"parameterNumber":1,"parameterNumberName":"U-component_of_WINDS"},"data":[0.475,0.4704,0.4711,0.4662,0.4661,0.4627,0.4618,0.4607,0.46,0.4561,0.4539,0.4543,0.4538,0.4514,0.4491,0.4493,0.4482,0.4459,0.4464,0.4561,0.4575,0.4588,0.4599,0.4457,0.4457,0.4362,0.4361,0.436,0.4817,0.4815,0.4792,0.4775,0.4755,0.4781,0.477,0.475,0.472,0.4712,0.4692,0.4658,0.4633,0.4637,0.4613,0.459,0.4601,0.4583,0.4583,0.4582,0.4686,0.4698,0.4575,0.4575,0.4575,0.4575,0.4575,0.4575,0.4941,0.4913,0.4908,0.4883,0.4877,0.4865,0.484,0.4845,0.4822,0.4799,0.4814,0.478,0.4773,0.4749,0.4744,0.4716,0.4737,0.472,0.4715,0.471,0.4702,0.4832,0.4713,0.4714,0.4714,0.4714,0.4715,0,0.5033,0.5042,0.5021,0.5002,0.4985,0.4971,0.4959,0.4944,0.4966,0.4946,0.4918,0.4903,0.4874,0.4847,0.4828,0.4826,0.485,0.4855,0.4842,0.4832,0.4826,0.4826,0.4992,0.4858,0.4859,0.486,0.486,0.4861,0.5156,0.5124,0.5124,0.5108,0.5104,0.5078,0.5064,0.5087,0.5071,0.506,0.5034,0.5009,0.499,0.4943,0.4949,0.4927,0.4938,0.4885,0.4935,0.4927,0.4934,0.4934,0.493,0.4874,0.4873,0.4871,0.487,0,0.5224,0.5239,0.5193,0.5196,0.5196,0.516,0.5163,0.5136,0.5145,0.5109,0.5102,0.5115,0.5087,0.5102,0.5074,0.5082,0.5021,0.5035,0.5023,0.5025,0.4977,0.498,0.4825,0.4804,0.4955,0.4953,0.4952,0,0.5334,0.5291,0.5316,0.5288,0.5241,0.5265,0.5217,0.522,0.5216,0.5188,0.522,0.5193,0.5218,0.5193,0.5205,0.5159,0.5155,0.5157,0.516,0.5152,0.5152,0.5142,0.5147,0.5173,0.5174,0.5175,0.5175,0,0.5436,0.5401,0.5357,0.5351,0.535,0.5328,0.5327,0.5323,0.5309,0.5295,0.5285,0.5267,0.5255,0.524,0.5256,0.5289,0.52,0.5249,0.5203,0.5202,0.518,0.5181,0.5042,0.5176,0.5177,0.5177,0.5177,0,0.5526,0.5512,0.5446,0.5446,0.5436,0.5407,0.539,0.5369,0.5362,0.5369,0.5357,0.538,0.5343,0.5389,0.5337,0.5375,0.5362,0.5362,0.5359,0.5354,0.5405,0.5321,0.5189,0.5174,0.5352,0.5354,0.5355,0,0.5638,0.5576,0.5597,0.5534,0.5508,0.5545,0.5513,0.5507,0.5513,0.5491,0.5498,0.5472,0.5511,0.5505,0.5478,0.5483,0.5434,0.549,0.5454,0.5453,0.5452,0.5332,0.5307,0.5217,0.5374,0.5372,0.5371,0,0.5726,0.5728,0.5715,0.5709,0.5706,0.5685,0.5649,0.563,0.5613,0.5604,0.5573,0.554,0.5566,0.5557,0.5573,0.5544,0.5468,0.5576,0.5577,0.5554,0.5387,0.5362,0.5347,0.5485,0.5483,0.5481,0.5386,0,0.5853,0.5826,0.5794,0.5782,0.5768,0.5731,0.5749,0.5732,0.5749,0.5757,0.5713,0.5713,0.5693,0.5682,0.5699,0.5628,0.5642,0.5671,0.5715,0.5638,0.5606,0.5594,0.576,0.5762,0.5763,0.5764,0,0,0.5954,0.5916,0.5941,0.5908,0.5897,0.5937,0.5895,0.589,0.5879,0.587,0.5896,0.5847,0.5846,0.5791,0.5768,0.5762,0.5749,0.5776,0.5675,0.5665,0.5656,0.5623,0.5609,0.5766,0.5767,0.5767,0.5767,0,0.6004,0.6005,0.5964,0.596,0.5956,0.5966,0.5957,0.5959,0.5961,0.592,0.5952,0.5929,0.5891,0.5884,0.5876,0.5784,0.5809,0.5777,0.5721,0.5687,0.5675,0.5665,0.563,0.5617,0.577,0.577,0.577,0,0.6092,0.6095,0.6078,0.6059,0.6056,0.6029,0.608,0.605,0.603,0.6074,0.6033,0.6035,0.6029,0.5976,0.5953,0.5975,0.5861,0.5902,0.5895,0.5892,0.586,0.5846,0.5833,0.5996,0.5996,0.5997,0,0,0.6133,0.6109,0.6118,0.6071,0.6067,0.6083,0.6071,0.6087,0.6082,0.6079,0.6083,0.6075,0.6053,0.6038,0.6019,0.5959,0.5958,0.5929,0.5918,0.5909,0.5902,0.5867,0.5854,0.6,0.6,0.6,0,0,0.6152,0.6162,0.6181,0.6129,0.6122,0.6128,0.6098,0.6121,0.6106,0.6112,0.6138,0.6137,0.6088,0.609,0.6123,0.6034,0.6078,0.6071,0.6035,0.6022,0.6012,0.6011,0.6175,0,0,0,0,0,0.6212,0.6161,0.6178,0.6172,0.6149,0.6119,0.6116,0.6136,0.6167,0.6142,0.6149,0.6177,0.6113,0.6143,0.6136,0.6098,0.6034,0.6028,0.6022,0.5962,0.5948,0.5936,0,0,0,0,0,0,0.621,0.6203,0.6179,0.6183,0.6178,0.6121,0.6176,0.6181,0.617,0.6176,0.6175,0.6177,0.6194,0.6148,0.6142,0.6105,0.6177,0.6032,0.6027,0.6022,0.5957,0.5946,0.5936,0,0,0,0,0,0.6209,0.6203,0.616,0.6184,0.6179,0.6194,0.6179,0.6182,0.6174,0.6185,0.6188,0.6191,0.6192,0.6188,0.6144,0.6107,0.6182,0.6179,0.6028,0.6024,0.6021,0.5952,0,0,0,0,0,0,0.6208,0.6206,0.616,0.6159,0.6205,0.6198,0.6197,0.6184,0.6185,0.6187,0.6202,0.6207,0.619,0.6188,0.6184,0.6107,0.6186,0.6183,0.6182,0.6025,0.6022,0.6019,0,0,0,0,0,0,0.6209,0.6205,0.6159,0.6185,0.6188,0.6201,0.62,0.6167,0.6184,0.6202,0.6206,0.6204,0.6195,0.6187,0.6185,0.6131,0.6188,0.6186,0.6184,0.6183,0.6023,0.602,0,0,0,0,0,0,0.6208,0.6204,0.6186,0.6188,0.619,0.6185,0.6171,0.6146,0.6207,0.6202,0.6213,0.6216,0.6193,0.6192,0.6184,0.6132,0.6131,0.6188,0.6187,0.6186,0.6185,0,0,0,0,0,0,0,0.6207,0.6226,0.6164,0.619,0.6192,0.6153,0.6153,0.6153,0.6208,0.621,0.6213,0.6215,0.6202,0.62,0.6197,0.6132,0,0,0.6189,0.6187,0,0,0,0,0,0,0,0,0.6228,0.6226,0.6163,0.6163,0.6163,0.6153,0.6153,0.6153,0.6208,0.621,0.6212,0.6214,0.6202,0.6199,0.6197,0,0,0,0,0,0,0,0,0,0,0,0,0,0,0,0.6163,0.6163,0,0.6153,0.6153,0.6153,0.6208,0.621,0.6212,0.6213,0.6201,0.6199,0.6197,0,0,0,0,0,0,0,0,0,0,0,0,0,0,0,0,0,0,0,0,0,0,0,0,0,0,0,0,0,0,0,0,0,0,0,0,0,0,0,0,0,0,0,0,0,0,0,0,0,0,0,0,0,0,0,0,0,0,0,0,0,0,0,0,0,0,0,0,0]}],[{"header":{"parameterUnit":"kt","parameterCategory":2,"dx":1,"dy":1,"la1":30.253999710083008,"la2":30.299108505249023,"lo1":-89.0895004272461,"lo2":-89.04439544677734,"nx":28,"ny":28,"refTime":"2022-09-17T21:00:00:Z","depth":0,"parameterNumber":2,"parameterNumberName":"V-component_of_WINDS"},"data":[1.569,1.5667,1.5655,1.5622,1.5605,1.5579,1.5565,1.5545,1.5525,1.5491,1.5467,1.5449,1.5422,1.5388,1.536,1.5351,1.534,1.5342,1.5332,1.534,1.534,1.534,1.5346,1.534,1.534,1.5325,1.5325,1.5325,1.5695,1.5679,1.5658,1.563,1.5611,1.5602,1.5577,1.5561,1.5537,1.5512,1.5489,1.5456,1.5427,1.5398,1.5367,1.5352,1.5345,1.5345,1.5345,1.534,1.5349,1.5355,1.5351,1.5351,1.5351,1.5351,1.5351,1.5351,1.5702,1.5689,1.5665,1.5642,1.5624,1.5604,1.5588,1.5568,1.5546,1.5515,1.5502,1.5473,1.5444,1.5399,1.5379,1.5354,1.5351,1.5346,1.5344,1.5343,1.5344,1.5366,1.5348,1.5348,1.5348,1.5348,1.5348,0,1.5702,1.5693,1.5673,1.5649,1.5631,1.561,1.5588,1.5578,1.5551,1.5533,1.5506,1.5487,1.5449,1.5419,1.5386,1.5367,1.5352,1.5349,1.5345,1.5352,1.5361,1.5355,1.5369,1.535,1.535,1.535,1.535,1.535,1.5708,1.5695,1.5663,1.565,1.5636,1.5615,1.5599,1.5577,1.5561,1.5528,1.5516,1.5488,1.5464,1.5419,1.5392,1.5362,1.5355,1.5349,1.535,1.5356,1.5353,1.5354,1.5352,1.5349,1.5349,1.5349,1.5349,0,1.5711,1.5691,1.5667,1.5636,1.5628,1.5614,1.5586,1.5571,1.5553,1.5529,1.5522,1.5492,1.5464,1.5438,1.54,1.5387,1.5359,1.5352,1.5369,1.5366,1.5357,1.5358,1.5337,1.5332,1.5338,1.5338,1.5338,0,1.5707,1.5691,1.5661,1.5648,1.5628,1.5606,1.5586,1.5569,1.5545,1.5526,1.5508,1.549,1.546,1.5437,1.5418,1.539,1.5383,1.5371,1.5366,1.5372,1.5374,1.5361,1.5362,1.5356,1.5356,1.5356,1.5356,0,1.5715,1.568,1.5659,1.5647,1.5613,1.5602,1.5587,1.5561,1.5545,1.552,1.5509,1.5481,1.5466,1.5443,1.5419,1.542,1.5385,1.5382,1.5372,1.5373,1.5365,1.5366,1.5354,1.5356,1.5357,1.5357,1.5357,0,1.5709,1.5689,1.5661,1.5631,1.5623,1.5608,1.5581,1.5562,1.5536,1.5524,1.5504,1.5488,1.5463,1.5462,1.5426,1.5435,1.542,1.5406,1.5405,1.5401,1.54,1.5396,1.5388,1.5385,1.5397,1.5397,1.5397,0,1.5723,1.5691,1.5673,1.5646,1.5628,1.561,1.5592,1.557,1.5553,1.5532,1.5512,1.5488,1.5482,1.5471,1.5457,1.5434,1.5422,1.5435,1.5401,1.54,1.5409,1.5401,1.5407,1.5392,1.5401,1.5401,1.5401,0,1.5732,1.5693,1.569,1.5676,1.5645,1.5629,1.5609,1.5582,1.557,1.5547,1.5528,1.5494,1.5488,1.5469,1.5454,1.544,1.5429,1.5435,1.5434,1.5434,1.5402,1.5407,1.5404,1.5421,1.5421,1.542,1.5404,0,1.5726,1.5708,1.5698,1.5669,1.5653,1.5635,1.5612,1.5598,1.5586,1.5569,1.5541,1.5515,1.5485,1.5476,1.5463,1.5441,1.5441,1.5434,1.5431,1.5426,1.542,1.5418,1.5442,1.5442,1.5442,1.5441,0,0,1.5744,1.5718,1.57,1.5681,1.5667,1.565,1.5633,1.5616,1.5582,1.5571,1.557,1.5518,1.5497,1.5465,1.5462,1.545,1.5443,1.5446,1.5429,1.5428,1.5426,1.542,1.5418,1.5441,1.5441,1.5441,1.5441,0,1.5738,1.5722,1.5707,1.569,1.5664,1.5647,1.5643,1.5614,1.5602,1.5576,1.5559,1.5539,1.5499,1.5479,1.5463,1.5449,1.5437,1.5442,1.5443,1.5428,1.5427,1.5426,1.542,1.5418,1.544,1.544,1.544,0,1.5742,1.5722,1.5713,1.5681,1.5664,1.5645,1.5636,1.5617,1.5602,1.5581,1.5555,1.5537,1.5508,1.5482,1.5469,1.5466,1.5433,1.5439,1.544,1.5438,1.5421,1.542,1.5419,1.5432,1.5432,1.5432,0,0,1.574,1.5723,1.5694,1.5678,1.5669,1.5644,1.5631,1.5619,1.5595,1.5585,1.5562,1.5538,1.5514,1.5498,1.5475,1.5449,1.544,1.544,1.544,1.544,1.5438,1.5422,1.5421,1.5433,1.5433,1.5433,0,0,1.5738,1.5705,1.5698,1.5677,1.5656,1.5625,1.5615,1.5605,1.5582,1.5582,1.5556,1.5549,1.5524,1.5506,1.5514,1.5472,1.547,1.5467,1.5485,1.5485,1.5485,1.549,1.55,0,0,0,0,0,1.572,1.5709,1.5703,1.5697,1.5656,1.5629,1.5623,1.5604,1.5603,1.5595,1.5574,1.5563,1.5505,1.5511,1.5503,1.5495,1.5437,1.5436,1.5435,1.5452,1.5453,1.5453,0,0,0,0,0,0,1.5717,1.5709,1.5703,1.5673,1.5663,1.5629,1.5623,1.5617,1.5603,1.5602,1.5567,1.5562,1.5543,1.5513,1.5507,1.5499,1.5502,1.5437,1.5436,1.5435,1.5452,1.5453,1.5453,0,0,0,0,0,1.5715,1.5708,1.5649,1.5673,1.5664,1.5636,1.5623,1.5618,1.5607,1.5575,1.5569,1.5594,1.5543,1.5536,1.5509,1.5503,1.5506,1.5504,1.5436,1.5436,1.5435,1.5452,0,0,0,0,0,0,1.5713,1.5703,1.5647,1.5643,1.5676,1.5638,1.5631,1.5619,1.558,1.5575,1.56,1.5599,1.5543,1.5538,1.5532,1.5506,1.551,1.5508,1.5506,1.5436,1.5435,1.5435,0,0,0,0,0,0,1.5706,1.57,1.5645,1.565,1.5647,1.5639,1.5633,1.5607,1.558,1.5607,1.5606,1.56,1.555,1.5539,1.5535,1.5495,1.5513,1.5511,1.5509,1.5508,1.5435,1.5435,0,0,0,0,0,0,1.5703,1.5698,1.5651,1.5649,1.5646,1.5607,1.5615,1.5574,1.5588,1.5609,1.5588,1.5588,1.5552,1.5547,1.5536,1.5498,1.5496,1.5513,1.5511,1.551,1.5509,0,0,0,0,0,0,0,1.5701,1.5741,1.5667,1.5648,1.5645,1.5613,1.5612,1.5611,1.5588,1.5588,1.5588,1.5588,1.5527,1.5524,1.5521,1.5501,0,0,1.5513,1.5512,0,0,0,0,0,0,0,0,1.5742,1.5741,1.5667,1.5666,1.5665,1.5612,1.5612,1.5611,1.5588,1.5588,1.5588,1.5588,1.5526,1.5524,1.5522,0,0,0,0,0,0,0,0,0,0,0,0,0,0,0,1.5666,1.5666,0,1.5612,1.5612,1.5611,1.5588,1.5588,1.5588,1.5588,1.5525,1.5524,1.5522,0,0,0,0,0,0,0,0,0,0,0,0,0,0,0,0,0,0,0,0,0,0,0,0,0,0,0,0,0,0,0,0,0,0,0,0,0,0,0,0,0,0,0,0,0,0,0,0,0,0,0,0,0,0,0,0,0,0,0,0,0,0,0,0,0,0,0,0,0]}]]]